Year,Month,Day,Hour,Minute,Value (Times are PST for windspeed in km/hr)
2020,04,26,00,00,17.30
2020,04,26,00,01,19.20
2020,04,26,00,02,14.30
2020,04,26,00,03,12.80
2020,04,26,00,04,15.10
2020,04,26,00,05,15.00
2020,04,26,00,06,12.80
2020,04,26,00,07,11.00
2020,04,26,00,08,9.00
2020,04,26,00,09,5.80
2020,04,26,00,10,1.70
2020,04,26,00,11,2.00
2020,04,26,00,12,1.00
2020,04,26,00,13,2.40
2020,04,26,00,14,5.70
2020,04,26,00,15,4.40
2020,04,26,00,16,4.80
2020,04,26,00,17,3.90
2020,04,26,00,18,4.10
2020,04,26,00,19,3.20
2020,04,26,00,20,3.40
2020,04,26,00,21,3.00
2020,04,26,00,22,3.00
2020,04,26,00,23,3.40
2020,04,26,00,24,2.40
2020,04,26,00,25,2.30
2020,04,26,00,26,3.30
2020,04,26,00,27,4.30
2020,04,26,00,28,3.00
2020,04,26,00,29,3.10
2020,04,26,00,30,2.40
2020,04,26,00,31,2.10
2020,04,26,00,32,0.40
2020,04,26,00,33,1.70
2020,04,26,00,34,2.50
2020,04,26,00,35,2.20
2020,04,26,00,36,2.40
2020,04,26,00,37,1.60
2020,04,26,00,38,1.70
2020,04,26,00,39,1.80
2020,04,26,00,40,3.50
2020,04,26,00,41,6.40
2020,04,26,00,42,4.50
2020,04,26,00,43,4.60
2020,04,26,00,44,3.50
2020,04,26,00,45,3.10
2020,04,26,00,46,1.80
2020,04,26,00,47,3.10
2020,04,26,00,48,2.70
2020,04,26,00,49,6.80
2020,04,26,00,50,5.60
2020,04,26,00,51,4.20
2020,04,26,00,52,5.30
2020,04,26,00,53,2.50
2020,04,26,00,54,4.90
2020,04,26,00,55,2.30
2020,04,26,00,56,6.10
2020,04,26,00,57,3.40
2020,04,26,00,58,2.00
2020,04,26,00,59,3.50
2020,04,26,01,00,3.10
2020,04,26,01,01,2.20
2020,04,26,01,02,1.10
2020,04,26,01,03,1.00
2020,04,26,01,04,2.00
2020,04,26,01,05,4.40
2020,04,26,01,06,1.10
2020,04,26,01,07,2.60
2020,04,26,01,08,3.40
2020,04,26,01,09,3.40
2020,04,26,01,10,5.30
2020,04,26,01,11,6.50
2020,04,26,01,12,5.80
2020,04,26,01,13,4.70
2020,04,26,01,14,3.60
2020,04,26,01,15,5.60
2020,04,26,01,16,4.30
2020,04,26,01,17,4.60
2020,04,26,01,18,5.50
2020,04,26,01,19,6.50
2020,04,26,01,20,4.00
2020,04,26,01,21,3.60
2020,04,26,01,22,5.00
2020,04,26,01,23,7.00
2020,04,26,01,24,5.50
2020,04,26,01,25,3.00
2020,04,26,01,26,2.30
2020,04,26,01,27,0.20
2020,04,26,01,28,1.00
2020,04,26,01,29,1.90
2020,04,26,01,30,1.40
2020,04,26,01,31,0.30
2020,04,26,01,32,0.00
2020,04,26,01,33,0.20
2020,04,26,01,34,0.30
2020,04,26,01,35,0.00
2020,04,26,01,36,0.00
2020,04,26,01,37,0.10
2020,04,26,01,38,0.00
2020,04,26,01,39,0.00
2020,04,26,01,40,0.00
2020,04,26,01,41,0.00
2020,04,26,01,42,0.00
2020,04,26,01,43,0.00
2020,04,26,01,44,0.20
2020,04,26,01,45,2.60
2020,04,26,01,46,2.70
2020,04,26,01,47,2.60
2020,04,26,01,48,2.00
2020,04,26,01,49,1.20
2020,04,26,01,50,0.40
2020,04,26,01,51,0.60
2020,04,26,01,52,1.10
2020,04,26,01,53,1.50
2020,04,26,01,54,1.90
2020,04,26,01,55,2.30
2020,04,26,01,56,2.60
2020,04,26,01,57,2.30
2020,04,26,01,58,2.20
2020,04,26,01,59,1.10
2020,04,26,02,00,1.40
2020,04,26,02,01,0.70
2020,04,26,02,02,0.00
2020,04,26,02,03,0.00
2020,04,26,02,04,0.00
2020,04,26,02,05,0.10
2020,04,26,02,06,0.00
2020,04,26,02,07,0.00
2020,04,26,02,08,0.00
2020,04,26,02,09,0.00
2020,04,26,02,10,0.00
2020,04,26,02,11,0.00
2020,04,26,02,12,0.00
2020,04,26,02,13,0.00
2020,04,26,02,14,0.40
2020,04,26,02,15,2.30
2020,04,26,02,16,3.50
2020,04,26,02,17,2.90
2020,04,26,02,18,1.30
2020,04,26,02,19,1.40
2020,04,26,02,20,1.70
2020,04,26,02,21,0.60
2020,04,26,02,22,3.50
2020,04,26,02,23,0.30
2020,04,26,02,24,0.10
2020,04,26,02,25,0.00
2020,04,26,02,26,0.00
2020,04,26,02,27,0.00
2020,04,26,02,28,0.00
2020,04,26,02,29,0.20
2020,04,26,02,30,0.80
2020,04,26,02,31,0.60
2020,04,26,02,32,0.70
2020,04,26,02,33,1.90
2020,04,26,02,34,2.30
2020,04,26,02,35,0.00
2020,04,26,02,36,0.00
2020,04,26,02,37,0.00
2020,04,26,02,38,2.40
2020,04,26,02,39,4.20
2020,04,26,02,40,1.90
2020,04,26,02,41,0.80
2020,04,26,02,42,0.40
2020,04,26,02,43,1.90
2020,04,26,02,44,1.50
2020,04,26,02,45,0.80
2020,04,26,02,46,0.00
2020,04,26,02,47,0.00
2020,04,26,02,48,0.00
2020,04,26,02,49,0.00
2020,04,26,02,50,0.00
2020,04,26,02,51,1.90
2020,04,26,02,52,0.00
2020,04,26,02,53,0.00
2020,04,26,02,54,0.00
2020,04,26,02,55,0.00
2020,04,26,02,56,0.00
2020,04,26,02,57,0.00
2020,04,26,02,58,0.00
2020,04,26,02,59,0.00
2020,04,26,03,00,0.00
2020,04,26,03,01,0.00
2020,04,26,03,02,0.00
2020,04,26,03,03,0.00
2020,04,26,03,04,0.00
2020,04,26,03,05,0.30
2020,04,26,03,06,2.60
2020,04,26,03,07,1.90
2020,04,26,03,08,1.60
2020,04,26,03,09,3.90
2020,04,26,03,10,4.30
2020,04,26,03,11,3.70
2020,04,26,03,12,3.00
2020,04,26,03,13,3.00
2020,04,26,03,14,3.90
2020,04,26,03,15,3.60
2020,04,26,03,16,3.10
2020,04,26,03,17,2.20
2020,04,26,03,18,2.60
2020,04,26,03,19,1.60
2020,04,26,03,20,2.10
2020,04,26,03,21,2.60
2020,04,26,03,22,2.00
2020,04,26,03,23,3.00
2020,04,26,03,24,0.20
2020,04,26,03,25,0.10
2020,04,26,03,26,1.20
2020,04,26,03,27,3.50
2020,04,26,03,28,2.20
2020,04,26,03,29,4.70
2020,04,26,03,30,3.60
2020,04,26,03,31,3.40
2020,04,26,03,32,2.90
2020,04,26,03,33,5.30
2020,04,26,03,34,5.80
2020,04,26,03,35,6.50
2020,04,26,03,36,6.40
2020,04,26,03,37,4.60
2020,04,26,03,38,5.10
2020,04,26,03,39,6.70
2020,04,26,03,40,5.50
2020,04,26,03,41,6.10
2020,04,26,03,42,3.50
2020,04,26,03,43,4.20
2020,04,26,03,44,5.00
2020,04,26,03,45,6.30
2020,04,26,03,46,16.10
2020,04,26,03,47,9.40
2020,04,26,03,48,7.50
2020,04,26,03,49,11.90
2020,04,26,03,50,7.90
2020,04,26,03,51,8.80
2020,04,26,03,52,9.10
2020,04,26,03,53,9.60
2020,04,26,03,54,9.10
2020,04,26,03,55,9.10
2020,04,26,03,56,9.40
2020,04,26,03,57,4.90
2020,04,26,03,58,8.10
2020,04,26,03,59,8.50
2020,04,26,04,00,4.30
2020,04,26,04,01,3.40
2020,04,26,04,02,2.50
2020,04,26,04,03,8.10
2020,04,26,04,04,4.50
2020,04,26,04,05,1.10
2020,04,26,04,06,2.60
2020,04,26,04,07,3.80
2020,04,26,04,08,0.60
2020,04,26,04,09,0.00
2020,04,26,04,10,0.00
2020,04,26,04,11,0.00
2020,04,26,04,12,0.00
2020,04,26,04,13,0.00
2020,04,26,04,14,0.00
2020,04,26,04,15,0.00
2020,04,26,04,16,0.00
2020,04,26,04,17,0.00
2020,04,26,04,18,1.00
2020,04,26,04,19,0.20
2020,04,26,04,20,0.00
2020,04,26,04,21,0.00
2020,04,26,04,22,0.00
2020,04,26,04,23,1.00
2020,04,26,04,24,1.80
2020,04,26,04,25,0.80
2020,04,26,04,26,0.00
2020,04,26,04,27,0.00
2020,04,26,04,28,0.00
2020,04,26,04,29,0.00
2020,04,26,04,30,0.00
2020,04,26,04,31,0.00
2020,04,26,04,32,0.00
2020,04,26,04,33,0.00
2020,04,26,04,34,0.90
2020,04,26,04,35,0.80
2020,04,26,04,36,2.20
2020,04,26,04,37,1.70
2020,04,26,04,38,0.60
2020,04,26,04,39,2.70
2020,04,26,04,40,3.40
2020,04,26,04,41,3.10
2020,04,26,04,42,0.90
2020,04,26,04,43,1.00
2020,04,26,04,44,0.00
2020,04,26,04,45,0.00
2020,04,26,04,46,0.10
2020,04,26,04,47,0.00
2020,04,26,04,48,0.00
2020,04,26,04,49,0.00
2020,04,26,04,50,0.00
2020,04,26,04,51,0.00
2020,04,26,04,52,0.00
2020,04,26,04,53,0.00
2020,04,26,04,54,0.00
2020,04,26,04,55,0.90
2020,04,26,04,56,2.10
2020,04,26,04,57,0.60
2020,04,26,04,58,1.60
2020,04,26,04,59,1.50
2020,04,26,05,00,2.50
2020,04,26,05,01,3.50
2020,04,26,05,02,3.40
2020,04,26,05,03,3.00
2020,04,26,05,04,1.90
2020,04,26,05,05,0.40
2020,04,26,05,06,1.60
2020,04,26,05,07,1.60
2020,04,26,05,08,1.30
2020,04,26,05,09,1.40
2020,04,26,05,10,4.30
2020,04,26,05,11,3.60
2020,04,26,05,12,3.00
2020,04,26,05,13,1.10
2020,04,26,05,14,0.00
2020,04,26,05,15,0.00
2020,04,26,05,16,0.00
2020,04,26,05,17,0.00
2020,04,26,05,18,2.30
2020,04,26,05,19,3.70
2020,04,26,05,20,4.80
2020,04,26,05,21,5.60
2020,04,26,05,22,6.20
2020,04,26,05,23,3.60
2020,04,26,05,24,4.80
2020,04,26,05,25,3.90
2020,04,26,05,26,3.50
2020,04,26,05,27,1.90
2020,04,26,05,28,2.30
2020,04,26,05,29,1.40
2020,04,26,05,30,2.10
2020,04,26,05,31,1.90
2020,04,26,05,32,2.50
2020,04,26,05,33,2.90
2020,04,26,05,34,1.90
2020,04,26,05,35,0.80
2020,04,26,05,36,1.00
2020,04,26,05,37,0.00
2020,04,26,05,38,0.00
2020,04,26,05,39,0.00
2020,04,26,05,40,1.10
2020,04,26,05,41,1.00
2020,04,26,05,42,3.00
2020,04,26,05,43,4.70
2020,04,26,05,44,3.20
2020,04,26,05,45,4.30
2020,04,26,05,46,3.60
2020,04,26,05,47,5.10
2020,04,26,05,48,4.10
2020,04,26,05,49,3.80
2020,04,26,05,50,3.20
2020,04,26,05,51,2.30
2020,04,26,05,52,1.10
2020,04,26,05,53,1.70
2020,04,26,05,54,3.80
2020,04,26,05,55,4.00
2020,04,26,05,56,4.00
2020,04,26,05,57,3.40
2020,04,26,05,58,4.00
2020,04,26,05,59,3.90
2020,04,26,06,00,5.20
2020,04,26,06,01,4.20
2020,04,26,06,02,4.70
2020,04,26,06,03,2.10
2020,04,26,06,04,2.50
2020,04,26,06,05,2.90
2020,04,26,06,06,2.70
2020,04,26,06,07,1.40
2020,04,26,06,08,3.70
2020,04,26,06,09,1.50
2020,04,26,06,10,2.90
2020,04,26,06,11,3.00
2020,04,26,06,12,2.20
2020,04,26,06,13,1.20
2020,04,26,06,14,1.10
2020,04,26,06,15,0.30
2020,04,26,06,16,0.20
2020,04,26,06,17,0.00
2020,04,26,06,18,0.80
2020,04,26,06,19,1.40
2020,04,26,06,20,2.20
2020,04,26,06,21,4.10
2020,04,26,06,22,4.30
2020,04,26,06,23,6.80
2020,04,26,06,24,4.90
2020,04,26,06,25,5.60
2020,04,26,06,26,6.10
2020,04,26,06,27,4.00
2020,04,26,06,28,5.40
2020,04,26,06,29,6.00
2020,04,26,06,30,4.20
2020,04,26,06,31,7.30
2020,04,26,06,32,9.90
2020,04,26,06,33,8.70
2020,04,26,06,34,8.90
2020,04,26,06,35,8.20
2020,04,26,06,36,8.40
2020,04,26,06,37,8.30
2020,04,26,06,38,9.20
2020,04,26,06,39,9.20
2020,04,26,06,40,12.00
2020,04,26,06,41,8.30
2020,04,26,06,42,12.10
2020,04,26,06,43,7.30
2020,04,26,06,44,8.90
2020,04,26,06,45,12.10
2020,04,26,06,46,14.00
2020,04,26,06,47,8.80
2020,04,26,06,48,10.90
2020,04,26,06,49,10.80
2020,04,26,06,50,11.30
2020,04,26,06,51,11.00
2020,04,26,06,52,15.50
2020,04,26,06,53,12.20
2020,04,26,06,54,10.20
2020,04,26,06,55,7.50
2020,04,26,06,56,7.60
2020,04,26,06,57,8.60
2020,04,26,06,58,7.10
2020,04,26,06,59,4.20
2020,04,26,07,00,5.50
2020,04,26,07,01,7.30
2020,04,26,07,02,7.90
2020,04,26,07,03,8.80
2020,04,26,07,04,3.20
2020,04,26,07,05,8.60
2020,04,26,07,06,7.80
2020,04,26,07,07,6.00
2020,04,26,07,08,6.00
2020,04,26,07,09,7.60
2020,04,26,07,10,7.10
2020,04,26,07,11,6.80
2020,04,26,07,12,7.30
2020,04,26,07,13,7.50
2020,04,26,07,14,8.90
2020,04,26,07,15,8.40
2020,04,26,07,16,5.80
2020,04,26,07,17,4.00
2020,04,26,07,18,6.00
2020,04,26,07,19,3.00
2020,04,26,07,20,5.30
2020,04,26,07,21,5.60
2020,04,26,07,22,4.70
2020,04,26,07,23,6.00
2020,04,26,07,24,7.40
2020,04,26,07,25,3.10
2020,04,26,07,26,3.20
2020,04,26,07,27,4.00
2020,04,26,07,28,5.40
2020,04,26,07,29,5.80
2020,04,26,07,30,4.80
2020,04,26,07,31,4.00
2020,04,26,07,32,7.70
2020,04,26,07,33,5.80
2020,04,26,07,34,4.50
2020,04,26,07,35,6.60
2020,04,26,07,36,7.20
2020,04,26,07,37,7.60
2020,04,26,07,38,5.70
2020,04,26,07,39,7.00
2020,04,26,07,40,5.60
2020,04,26,07,41,6.60
2020,04,26,07,42,9.30
2020,04,26,07,43,6.70
2020,04,26,07,44,6.60
2020,04,26,07,45,4.50
2020,04,26,07,46,8.30
2020,04,26,07,47,7.30
2020,04,26,07,48,6.60
2020,04,26,07,49,7.50
2020,04,26,07,50,3.10
2020,04,26,07,51,6.20
2020,04,26,07,52,5.90
2020,04,26,07,53,6.00
2020,04,26,07,54,5.50
2020,04,26,07,55,5.60
2020,04,26,07,56,2.40
2020,04,26,07,57,3.70
2020,04,26,07,58,6.00
2020,04,26,07,59,4.80
2020,04,26,08,00,5.70
2020,04,26,08,01,7.20
2020,04,26,08,02,5.20
2020,04,26,08,03,5.70
2020,04,26,08,04,5.10
2020,04,26,08,05,6.90
2020,04,26,08,06,5.30
2020,04,26,08,07,8.30
2020,04,26,08,08,6.50
2020,04,26,08,09,4.80
2020,04,26,08,10,10.10
2020,04,26,08,11,8.90
2020,04,26,08,12,9.50
2020,04,26,08,13,8.90
2020,04,26,08,14,7.60
2020,04,26,08,15,9.60
2020,04,26,08,16,10.20
2020,04,26,08,17,13.00
2020,04,26,08,18,13.00
2020,04,26,08,19,9.30
2020,04,26,08,20,8.30
2020,04,26,08,21,7.70
2020,04,26,08,22,8.70
2020,04,26,08,23,7.10
2020,04,26,08,24,9.90
2020,04,26,08,25,8.80
2020,04,26,08,26,6.00
2020,04,26,08,27,5.70
2020,04,26,08,28,6.80
2020,04,26,08,29,9.70
2020,04,26,08,30,7.60
2020,04,26,08,31,7.20
2020,04,26,08,32,5.10
2020,04,26,08,33,7.90
2020,04,26,08,34,6.20
2020,04,26,08,35,7.30
2020,04,26,08,36,5.50
2020,04,26,08,37,5.50
2020,04,26,08,38,7.20
2020,04,26,08,39,6.20
2020,04,26,08,40,5.30
2020,04,26,08,41,6.70
2020,04,26,08,42,6.60
2020,04,26,08,43,6.20
2020,04,26,08,44,7.20
2020,04,26,08,45,7.10
2020,04,26,08,46,9.00
2020,04,26,08,47,7.80
2020,04,26,08,48,5.90
2020,04,26,08,49,8.00
2020,04,26,08,50,7.40
2020,04,26,08,51,8.10
2020,04,26,08,52,4.10
2020,04,26,08,53,7.90
2020,04,26,08,54,4.90
2020,04,26,08,55,6.10
2020,04,26,08,56,6.40
2020,04,26,08,57,5.10
2020,04,26,08,58,6.40
2020,04,26,08,59,8.30
2020,04,26,09,00,7.30
2020,04,26,09,01,6.50
2020,04,26,09,02,6.40
2020,04,26,09,03,8.60
2020,04,26,09,04,8.50
2020,04,26,09,05,8.50
2020,04,26,09,06,7.30
2020,04,26,09,07,7.00
2020,04,26,09,08,6.40
2020,04,26,09,09,6.80
2020,04,26,09,10,5.30
2020,04,26,09,11,9.20
2020,04,26,09,12,7.30
2020,04,26,09,13,4.60
2020,04,26,09,14,5.50
2020,04,26,09,15,4.50
2020,04,26,09,16,6.60
2020,04,26,09,17,7.00
2020,04,26,09,18,8.90
2020,04,26,09,19,10.20
2020,04,26,09,20,9.50
2020,04,26,09,21,8.40
2020,04,26,09,22,8.70
2020,04,26,09,23,8.90
2020,04,26,09,24,8.90
2020,04,26,09,25,7.50
2020,04,26,09,26,3.70
2020,04,26,09,27,2.80
2020,04,26,09,28,8.70
2020,04,26,09,29,8.80
2020,04,26,09,30,9.60
2020,04,26,09,31,8.60
2020,04,26,09,32,4.10
2020,04,26,09,33,5.70
2020,04,26,09,34,8.10
2020,04,26,09,35,6.70
2020,04,26,09,36,8.90
2020,04,26,09,37,7.80
2020,04,26,09,38,9.30
2020,04,26,09,39,6.00
2020,04,26,09,40,8.90
2020,04,26,09,41,10.00
2020,04,26,09,42,7.20
2020,04,26,09,43,6.80
2020,04,26,09,44,9.30
2020,04,26,09,45,9.70
2020,04,26,09,46,11.80
2020,04,26,09,47,11.30
2020,04,26,09,48,6.70
2020,04,26,09,49,7.30
2020,04,26,09,50,10.50
2020,04,26,09,51,9.80
2020,04,26,09,52,8.50
2020,04,26,09,53,11.80
2020,04,26,09,54,8.90
2020,04,26,09,55,10.90
2020,04,26,09,56,7.90
2020,04,26,09,57,10.00
2020,04,26,09,58,9.50
2020,04,26,09,59,9.50
2020,04,26,10,00,6.40
2020,04,26,10,01,9.20
2020,04,26,10,02,6.20
2020,04,26,10,03,10.10
2020,04,26,10,04,12.10
2020,04,26,10,05,10.10
2020,04,26,10,06,9.30
2020,04,26,10,07,8.00
2020,04,26,10,08,10.70
2020,04,26,10,09,10.00
2020,04,26,10,10,6.80
2020,04,26,10,11,7.20
2020,04,26,10,12,10.00
2020,04,26,10,13,8.10
2020,04,26,10,14,7.40
2020,04,26,10,15,7.80
2020,04,26,10,16,9.40
2020,04,26,10,17,6.80
2020,04,26,10,18,5.40
2020,04,26,10,19,6.80
2020,04,26,10,20,12.10
2020,04,26,10,21,9.30
2020,04,26,10,22,6.20
2020,04,26,10,23,10.80
2020,04,26,10,24,9.90
2020,04,26,10,25,8.80
2020,04,26,10,26,5.00
2020,04,26,10,27,4.90
2020,04,26,10,28,6.50
2020,04,26,10,29,10.00
2020,04,26,10,30,7.80
2020,04,26,10,31,6.70
2020,04,26,10,32,5.90
2020,04,26,10,33,6.00
2020,04,26,10,34,9.70
2020,04,26,10,35,11.50
2020,04,26,10,36,9.30
2020,04,26,10,37,11.20
2020,04,26,10,38,9.10
2020,04,26,10,39,9.10
2020,04,26,10,40,10.50
2020,04,26,10,41,10.20
2020,04,26,10,42,10.60
2020,04,26,10,43,7.30
2020,04,26,10,44,12.70
2020,04,26,10,45,7.70
2020,04,26,10,46,6.30
2020,04,26,10,47,6.60
2020,04,26,10,48,8.00
2020,04,26,10,49,6.90
2020,04,26,10,50,6.50
2020,04,26,10,51,10.80
2020,04,26,10,52,7.00
2020,04,26,10,53,8.90
2020,04,26,10,54,10.20
2020,04,26,10,55,6.20
2020,04,26,10,56,7.00
2020,04,26,10,57,9.00
2020,04,26,10,58,3.30
2020,04,26,10,59,8.00
2020,04,26,11,00,7.60
2020,04,26,11,01,7.20
2020,04,26,11,02,7.60
2020,04,26,11,03,8.40
2020,04,26,11,04,8.70
2020,04,26,11,05,8.60
2020,04,26,11,06,9.30
2020,04,26,11,07,7.10
2020,04,26,11,08,8.00
2020,04,26,11,09,7.70
2020,04,26,11,10,6.40
2020,04,26,11,11,6.20
2020,04,26,11,12,10.50
2020,04,26,11,13,9.70
2020,04,26,11,14,10.70
2020,04,26,11,15,9.70
2020,04,26,11,16,13.60
2020,04,26,11,17,11.70
2020,04,26,11,18,10.20
2020,04,26,11,19,10.30
2020,04,26,11,20,14.60
2020,04,26,11,21,9.10
2020,04,26,11,22,8.90
2020,04,26,11,23,7.20
2020,04,26,11,24,9.30
2020,04,26,11,25,11.00
2020,04,26,11,26,10.90
2020,04,26,11,27,8.80
2020,04,26,11,28,9.70
2020,04,26,11,29,12.00
2020,04,26,11,30,13.40
2020,04,26,11,31,10.20
2020,04,26,11,32,9.10
2020,04,26,11,33,11.90
2020,04,26,11,34,13.20
2020,04,26,11,35,10.50
2020,04,26,11,36,10.70
2020,04,26,11,37,13.40
2020,04,26,11,38,12.40
2020,04,26,11,39,14.40
2020,04,26,11,40,14.60
2020,04,26,11,41,10.90
2020,04,26,11,42,7.80
2020,04,26,11,43,9.30
2020,04,26,11,44,7.90
2020,04,26,11,45,6.30
2020,04,26,11,46,6.70
2020,04,26,11,47,11.10
2020,04,26,11,48,8.20
2020,04,26,11,49,7.00
2020,04,26,11,50,8.60
2020,04,26,11,51,5.90
2020,04,26,11,52,8.10
2020,04,26,11,53,6.80
2020,04,26,11,54,7.80
2020,04,26,11,55,8.60
2020,04,26,11,56,7.60
2020,04,26,11,57,9.90
2020,04,26,11,58,8.60
2020,04,26,11,59,9.10
2020,04,26,12,00,8.50
2020,04,26,12,01,8.60
2020,04,26,12,02,7.50
2020,04,26,12,03,8.30
2020,04,26,12,04,8.00
2020,04,26,12,05,9.20
2020,04,26,12,06,5.60
2020,04,26,12,07,4.40
2020,04,26,12,08,8.60
2020,04,26,12,09,8.30
2020,04,26,12,10,7.20
2020,04,26,12,11,8.50
2020,04,26,12,12,10.60
2020,04,26,12,13,7.50
2020,04,26,12,14,9.30
2020,04,26,12,15,7.80
2020,04,26,12,16,7.50
2020,04,26,12,17,9.40
2020,04,26,12,18,7.00
2020,04,26,12,19,10.70
2020,04,26,12,20,12.20
2020,04,26,12,21,10.30
2020,04,26,12,22,12.10
2020,04,26,12,23,8.70
2020,04,26,12,24,9.70
2020,04,26,12,25,5.90
2020,04,26,12,26,8.00
2020,04,26,12,27,9.70
2020,04,26,12,28,9.70
2020,04,26,12,29,9.70
2020,04,26,12,30,14.20
2020,04,26,12,31,12.40
2020,04,26,12,32,11.90
2020,04,26,12,33,7.10
2020,04,26,12,34,9.10
2020,04,26,12,35,9.50
2020,04,26,12,36,11.20
2020,04,26,12,37,9.70
2020,04,26,12,38,13.50
2020,04,26,12,39,10.10
2020,04,26,12,40,15.80
2020,04,26,12,41,13.90
2020,04,26,12,42,15.90
2020,04,26,12,43,9.20
2020,04,26,12,44,10.00
2020,04,26,12,45,12.60
2020,04,26,12,46,14.40
2020,04,26,12,47,10.00
2020,04,26,12,48,12.20
2020,04,26,12,49,7.10
2020,04,26,12,50,10.50
2020,04,26,12,51,12.50
2020,04,26,12,52,11.80
2020,04,26,12,53,12.60
2020,04,26,12,54,9.70
2020,04,26,12,55,14.10
2020,04,26,12,56,10.60
2020,04,26,12,57,8.70
2020,04,26,12,58,8.80
2020,04,26,12,59,7.60
2020,04,26,13,00,7.90
2020,04,26,13,01,6.70
2020,04,26,13,02,5.10
2020,04,26,13,03,9.70
2020,04,26,13,04,8.50
2020,04,26,13,05,7.90
2020,04,26,13,06,10.10
2020,04,26,13,07,12.50
2020,04,26,13,08,7.20
2020,04,26,13,09,14.70
2020,04,26,13,10,12.60
2020,04,26,13,11,15.10
2020,04,26,13,12,16.00
2020,04,26,13,13,10.20
2020,04,26,13,14,10.00
2020,04,26,13,15,6.80
2020,04,26,13,16,12.00
2020,04,26,13,17,11.90
2020,04,26,13,18,13.40
2020,04,26,13,19,13.60
2020,04,26,13,20,8.20
2020,04,26,13,21,9.90
2020,04,26,13,22,10.30
2020,04,26,13,23,13.40
2020,04,26,13,24,13.10
2020,04,26,13,25,15.80
2020,04,26,13,26,14.60
2020,04,26,13,27,15.70
2020,04,26,13,28,8.80
2020,04,26,13,29,11.30
2020,04,26,13,30,7.50
2020,04,26,13,31,6.30
2020,04,26,13,32,9.70
2020,04,26,13,33,12.20
2020,04,26,13,34,12.80
2020,04,26,13,35,12.70
2020,04,26,13,36,12.70
2020,04,26,13,37,13.90
2020,04,26,13,38,12.60
2020,04,26,13,39,10.80
2020,04,26,13,40,10.50
2020,04,26,13,41,10.50
2020,04,26,13,42,8.80
2020,04,26,13,43,13.70
2020,04,26,13,44,14.20
2020,04,26,13,45,14.30
2020,04,26,13,46,15.00
2020,04,26,13,47,9.40
2020,04,26,13,48,11.30
2020,04,26,13,49,11.50
2020,04,26,13,50,9.00
2020,04,26,13,51,7.50
2020,04,26,13,52,10.10
2020,04,26,13,53,12.00
2020,04,26,13,54,14.50
2020,04,26,13,55,13.10
2020,04,26,13,56,11.90
2020,04,26,13,57,11.50
2020,04,26,13,58,13.10
2020,04,26,13,59,9.80
2020,04,26,14,00,11.50
2020,04,26,14,01,11.80
2020,04,26,14,02,8.70
2020,04,26,14,03,12.60
2020,04,26,14,04,8.50
2020,04,26,14,05,12.20
2020,04,26,14,06,8.10
2020,04,26,14,07,11.90
2020,04,26,14,08,7.70
2020,04,26,14,09,8.10
2020,04,26,14,10,11.20
2020,04,26,14,11,11.70
2020,04,26,14,12,11.20
2020,04,26,14,13,8.50
2020,04,26,14,14,10.70
2020,04,26,14,15,9.70
2020,04,26,14,16,10.80
2020,04,26,14,17,11.70
2020,04,26,14,18,16.20
2020,04,26,14,19,12.30
2020,04,26,14,20,12.00
2020,04,26,14,21,16.10
2020,04,26,14,22,13.10
2020,04,26,14,23,15.00
2020,04,26,14,24,11.00
2020,04,26,14,25,7.00
2020,04,26,14,26,13.10
2020,04,26,14,27,16.30
2020,04,26,14,28,15.20
2020,04,26,14,29,15.70
2020,04,26,14,30,15.00
2020,04,26,14,31,13.60
2020,04,26,14,32,7.00
2020,04,26,14,33,10.60
2020,04,26,14,34,8.50
2020,04,26,14,35,13.80
2020,04,26,14,36,14.90
2020,04,26,14,37,9.90
2020,04,26,14,38,7.90
2020,04,26,14,39,8.00
2020,04,26,14,40,7.40
2020,04,26,14,41,11.50
2020,04,26,14,42,10.90
2020,04,26,14,43,13.40
2020,04,26,14,44,10.50
2020,04,26,14,45,5.60
2020,04,26,14,46,6.90
2020,04,26,14,47,8.10
2020,04,26,14,48,7.80
2020,04,26,14,49,8.70
2020,04,26,14,50,11.70
2020,04,26,14,51,10.40
2020,04,26,14,52,8.10
2020,04,26,14,53,8.70
2020,04,26,14,54,6.00
2020,04,26,14,55,9.30
2020,04,26,14,56,7.40
2020,04,26,14,57,6.50
2020,04,26,14,58,8.30
2020,04,26,14,59,11.10
2020,04,26,15,00,8.40
2020,04,26,15,01,8.50
2020,04,26,15,02,14.30
2020,04,26,15,03,7.60
2020,04,26,15,04,8.90
2020,04,26,15,05,12.40
2020,04,26,15,06,14.20
2020,04,26,15,07,9.00
2020,04,26,15,08,11.10
2020,04,26,15,09,7.70
2020,04,26,15,10,8.50
2020,04,26,15,11,11.60
2020,04,26,15,12,9.40
2020,04,26,15,13,10.60
2020,04,26,15,14,11.40
2020,04,26,15,15,13.80
2020,04,26,15,16,12.10
2020,04,26,15,17,11.30
2020,04,26,15,18,13.80
2020,04,26,15,19,11.30
2020,04,26,15,20,11.10
2020,04,26,15,21,12.80
2020,04,26,15,22,14.80
2020,04,26,15,23,12.40
2020,04,26,15,24,9.00
2020,04,26,15,25,10.40
2020,04,26,15,26,15.50
2020,04,26,15,27,11.80
2020,04,26,15,28,12.30
2020,04,26,15,29,9.30
2020,04,26,15,30,8.80
2020,04,26,15,31,11.50
2020,04,26,15,32,13.60
2020,04,26,15,33,13.40
2020,04,26,15,34,11.60
2020,04,26,15,35,8.90
2020,04,26,15,36,7.30
2020,04,26,15,37,7.30
2020,04,26,15,38,7.20
2020,04,26,15,39,7.80
2020,04,26,15,40,8.80
2020,04,26,15,41,7.30
2020,04,26,15,42,7.00
2020,04,26,15,43,8.00
2020,04,26,15,44,11.30
2020,04,26,15,45,8.00
2020,04,26,15,46,8.30
2020,04,26,15,47,6.60
2020,04,26,15,48,6.20
2020,04,26,15,49,10.20
2020,04,26,15,50,14.00
2020,04,26,15,51,17.10
2020,04,26,15,52,14.30
2020,04,26,15,53,13.50
2020,04,26,15,54,8.30
2020,04,26,15,55,8.00
2020,04,26,15,56,11.50
2020,04,26,15,57,15.10
2020,04,26,15,58,14.40
2020,04,26,15,59,8.50
2020,04,26,16,00,8.50
2020,04,26,16,01,8.20
2020,04,26,16,02,9.10
2020,04,26,16,03,8.00
2020,04,26,16,04,7.90
2020,04,26,16,05,10.70
2020,04,26,16,06,6.30
2020,04,26,16,07,10.60
2020,04,26,16,08,5.90
2020,04,26,16,09,8.70
2020,04,26,16,10,11.30
2020,04,26,16,11,7.20
2020,04,26,16,12,10.90
2020,04,26,16,13,6.50
2020,04,26,16,14,6.80
2020,04,26,16,15,8.40
2020,04,26,16,16,7.00
2020,04,26,16,17,6.50
2020,04,26,16,18,11.30
2020,04,26,16,19,10.90
2020,04,26,16,20,7.70
2020,04,26,16,21,9.70
2020,04,26,16,22,7.90
2020,04,26,16,23,7.10
2020,04,26,16,24,9.20
2020,04,26,16,25,7.70
2020,04,26,16,26,8.80
2020,04,26,16,27,8.90
2020,04,26,16,28,8.70
2020,04,26,16,29,11.90
2020,04,26,16,30,9.40
2020,04,26,16,31,7.30
2020,04,26,16,32,6.90
2020,04,26,16,33,7.00
2020,04,26,16,34,6.40
2020,04,26,16,35,4.60
2020,04,26,16,36,6.40
2020,04,26,16,37,7.90
2020,04,26,16,38,5.30
2020,04,26,16,39,7.60
2020,04,26,16,40,9.30
2020,04,26,16,41,6.80
2020,04,26,16,42,7.10
2020,04,26,16,43,6.80
2020,04,26,16,44,3.80
2020,04,26,16,45,3.90
2020,04,26,16,46,5.30
2020,04,26,16,47,7.80
2020,04,26,16,48,9.50
2020,04,26,16,49,9.30
2020,04,26,16,50,4.30
2020,04,26,16,51,3.40
2020,04,26,16,52,2.50
2020,04,26,16,53,4.90
2020,04,26,16,54,4.80
2020,04,26,16,55,6.30
2020,04,26,16,56,5.00
2020,04,26,16,57,3.90
2020,04,26,16,58,4.50
2020,04,26,16,59,2.20
2020,04,26,17,00,6.50
2020,04,26,17,01,8.30
2020,04,26,17,02,7.20
2020,04,26,17,03,7.00
2020,04,26,17,04,9.10
2020,04,26,17,05,5.90
2020,04,26,17,06,7.00
2020,04,26,17,07,4.90
2020,04,26,17,08,6.60
2020,04,26,17,09,6.00
2020,04,26,17,10,4.70
2020,04,26,17,11,3.40
2020,04,26,17,12,4.70
2020,04,26,17,13,6.00
2020,04,26,17,14,5.00
2020,04,26,17,15,5.80
2020,04,26,17,16,3.60
2020,04,26,17,17,4.70
2020,04,26,17,18,6.20
2020,04,26,17,19,5.00
2020,04,26,17,20,5.00
2020,04,26,17,21,4.70
2020,04,26,17,22,3.80
2020,04,26,17,23,4.70
2020,04,26,17,24,5.30
2020,04,26,17,25,3.80
2020,04,26,17,26,5.10
2020,04,26,17,27,1.70
2020,04,26,17,28,2.70
2020,04,26,17,29,3.00
2020,04,26,17,30,6.40
2020,04,26,17,31,2.50
2020,04,26,17,32,3.00
2020,04,26,17,33,4.70
2020,04,26,17,34,6.40
2020,04,26,17,35,4.40
2020,04,26,17,36,2.50
2020,04,26,17,37,3.30
2020,04,26,17,38,2.70
2020,04,26,17,39,3.00
2020,04,26,17,40,1.60
2020,04,26,17,41,3.00
2020,04,26,17,42,2.60
2020,04,26,17,43,3.90
2020,04,26,17,44,3.60
2020,04,26,17,45,4.30
2020,04,26,17,46,4.30
2020,04,26,17,47,5.00
2020,04,26,17,48,4.70
2020,04,26,17,49,5.80
2020,04,26,17,50,7.30
2020,04,26,17,51,6.90
2020,04,26,17,52,6.70
2020,04,26,17,53,7.60
2020,04,26,17,54,8.70
2020,04,26,17,55,7.10
2020,04,26,17,56,8.10
2020,04,26,17,57,9.30